User: anonymous   Login
Location: Unspecified
(0.0000°N, 0.0000°E)
Time: 14:38:22
(UTC+02:00)
Language:

ADEOS II - Orbit

View from above orbital plane
View from above orbital plane
View from above satellite
View from above satellite

Ground track
Ground track

The orbit data is extracted from the following two-line orbital elements,

1 27597U 02056A   16150.92865832  .00000064  00000-0  43043-4 0  9997
2 27597  98.3204 131.9161 0001895  59.4417 300.6952 14.27213035700755
Epoch (UTC): 29 May 2016 22:17:16
Eccentricity: 0.0001895
inclination: 98.3204°
perigee height: 800 km
apogee height: 802 km
right ascension of ascending node: 131.9161°
argument of perigee: 59.4417°
revolutions per day: 14.27213035
mean anomaly at epoch: 300.6952°
orbit number at epoch: 70075

The dashed part of the orbit path shows where the satellite is in the earth's shadow,  

DLR